Content
SEND FEEDBACK

Daily
Averages
Monthly
Summary
Greece

THESSALONIKI, GREECE


Home > Europe > Greece
Elevation: 13 feet     Latitude: 40 13N     Longitude: 022 58E

WEATHER
 
SELECT A DAY
Number of Records: 94,015;   Date Range: 7/3/96 - 7/30/14
 
SHARE

PRINT THIS DATA

[ ← Previous Day ]
WEATHER ALMANAC - MARCH 3, 2013
[ Next Day → ]
[ °C ]   °F
Weather ElementAverageHighLow
Temperature46.7 °F53.6 °F (3:20 pm)37.4 °F (11:20 pm)
Dewpoint38.5 °F41 °F (12:50 am)33.8 °F (11:20 pm)
Humidity73.1 %87 % (7:20 am)43 % (2:00 pm)
Barometer30.00 in30.04 in (12:50 am)29.95 in (4:20 pm)
Wind Speed7.7 mph11.5 mph (8:20 am)
Weather ElementAverage
Visibility6.1 mi
Wind DirectionWSW (256.6 °)

Weather ElementTotal
Precipitation---
Heating Degree Days19.5 (Base 65)
Averaged from 48 records on March 3, 2013
WEATHER CONDITIONS BREAKOUT
WIND DIRECTION BREAKOUT
WEATHER BY HOUR - MARCH 3, 2013
[ °C ]   °F
Local TimeTemperatureDewpointHumidityBarometerVisibilityWind DirectionWind SpeedGust SpeedPrecipitationEventsConditions
12:50 AM46.4 °F41.0 °F81 %30.04 in5.0 miNNW (340°)10.4 mphRainLight Rain
1:20 AM46.4 °F41.0 °F81 %30.04 in5.0 miNNW (340°)10.4 mphRainLight Rain
1:50 AM44.6 °F39.2 °F81 %30.04 in5.0 miNorth (350°)9.2 mphRainLight Rain
2:00 AM45.0 °F39.0 °F72 %30.04 in5.0 miNorth (350°)9.2 mphRainLight Rain
2:20 AM46.4 °F39.2 °F76 %30.01 in5.6 miNorth (350°)6.9 mphRainLight Rain
2:50 AM46.4 °F41.0 °F81 %30.01 in6.2 miNorth (350°)9.2 mphRainLight Rain
3:20 AM46.4 °F41.0 °F81 %30.01 in6.2 miNorth (350°)9.2 mphRainLight Rain
3:50 AM46.4 °F39.2 °F76 %30.01 in6.2 miNNW (330°)10.4 mphRainLight Rain
4:50 AM46.4 °F39.2 °F76 %30.01 in6.2 miNNW (330°)9.2 mphOvercast
5:20 AM46.4 °F39.2 °F76 %30.01 in6.2 miNNW (330°)9.2 mphOvercast
5:50 AM46.4 °F39.2 °F76 %30.01 in6.2 miNNW (340°)10.4 mphOvercast
6:20 AM46.4 °F39.2 °F76 %30.01 in6.2 miNNW (330°)10.4 mphOvercast
6:50 AM46.4 °F41.0 °F81 %30.01 in6.2 miNNW (330°)5.8 mphOvercast
7:20 AM44.6 °F41.0 °F87 %30.01 in6.2 miCalmRainLight Rain
7:50 AM46.4 °F41.0 °F81 %30.01 in6.2 miNW (310°)4.6 mphRainLight Rain
8:00 AM46.0 °F41.0 °F76 %30.03 in6.0 miNW (310°)4.6 mphRainLight Rain
8:20 AM46.4 °F41.0 °F81 %30.04 in6.2 miNW (310°)11.5 mphRainLight Rain
8:50 AM46.4 °F39.2 °F76 %30.04 in6.2 miWNW (290°)5.8 mphRainLight Rain
9:20 AM46.4 °F41.0 °F81 %30.04 in6.2 miNW (310°)9.2 mphOvercast
9:50 AM46.4 °F39.2 °F76 %30.04 in6.2 miNNW (330°)11.5 mphOvercast
10:20 AM46.4 °F39.2 °F76 %30.04 in6.2 miNNW (330°)10.4 mphOvercast
10:50 AM48.2 °F39.2 °F71 %30.04 in6.2 miNNW (340°)6.9 mphOvercast
11:20 AM48.2 °F39.2 °F71 %30.04 in6.2 miNorth (350°)6.9 mphOvercast
11:50 AM48.2 °F39.2 °F71 %30.04 in6.2 miNNW (330°)6.9 mphOvercast
12:20 PM48.2 °F39.2 °F71 %30.04 in6.2 miNW (320°)9.2 mphOvercast
12:50 PM48.2 °F39.2 °F71 %30.04 in6.2 miNW (310°)10.4 mphMostly Cloudy
1:50 PM51.8 °F35.6 °F54 %30.01 in6.2 miWNW (300°)9.2 mphMostly Cloudy
2:00 PM52.0 °F36.0 °F43 %30.01 in6.0 miWNW (300°)9.2 mphPartly Cloudy
2:20 PM51.8 °F37.4 °F58 %29.98 in6.2 miWNW (290°)11.5 mphMostly Cloudy
2:50 PM51.8 °F37.4 °F58 %29.98 in6.2 miWNW (300°)10.4 mphMostly Cloudy
3:20 PM53.6 °F37.4 °F54 %29.98 in6.2 miWest (280°)10.4 mphScattered Clouds
3:50 PM53.6 °F37.4 °F54 %29.98 in6.2 miWNW (290°)9.2 mphScattered Clouds
4:20 PM51.8 °F37.4 °F58 %29.95 in6.2 miWest (260°)10.4 mphScattered Clouds
4:50 PM51.8 °F37.4 °F58 %29.95 in6.2 miWest (260°)9.2 mphScattered Clouds
5:20 PM51.8 °F37.4 °F58 %29.95 in6.2 miWest (260°)9.2 mphPartly Cloudy
5:50 PM51.8 °F37.4 °F58 %29.95 in6.2 miWest (280°)8.1 mphPartly Cloudy
6:20 PM50.0 °F39.2 °F66 %29.95 in6.2 miWest (260°)5.8 mphPartly Cloudy
6:50 PM48.2 °F39.2 °F71 %29.95 in6.2 miVariable2.3 mphPartly Cloudy
7:20 PM46.4 °F37.4 °F71 %29.95 in6.2 miVariable2.3 mphPartly Cloudy
7:50 PM44.6 °F37.4 °F76 %29.95 in6.2 miVariable3.5 mphPartly Cloudy
8:00 PM44.0 °F37.0 °F70 %29.97 in6.0 mi°3.5 mphScattered Clouds
8:20 PM42.8 °F37.4 °F81 %29.98 in6.2 miVariable3.5 mphPartly Cloudy
8:50 PM41.0 °F35.6 °F81 %29.98 in6.2 miESE (120°)4.6 mphPartly Cloudy
9:20 PM39.2 °F35.6 °F87 %29.98 in6.2 miESE (120°)4.6 mphPartly Cloudy
9:50 PM39.2 °F35.6 °F87 %29.98 in6.2 miESE (120°)6.9 mphPartly Cloudy
10:20 PM39.2 °F35.6 °F87 %29.98 in6.2 miESE (120°)6.9 mphPartly Cloudy
10:50 PM39.2 °F35.6 °F87 %29.98 in6.2 miESE (120°)5.8 mphPartly Cloudy
11:20 PM37.4 °F33.8 °F87 %29.98 in6.2 miESE (120°)5.8 mphPartly Cloudy
Hourly data recorded from LGTS, located miles away from Thessaloniki, Greece







STORIES FROM OUR PARTNERS